This is the latest recevied weather packets stored in our database for station/object KB3FKJ. If no packets are shown the sender has not sent any weather packets the latest 10 day(s).
| Time | Temp. | Humidity | Pressure | Rain* | Wind** | Luminosity | Snow |
|---|---|---|---|---|---|---|---|
| 1777894971 | 8.89° C | 57% | 1011.7 hPa | 0 mm | - | 44 W/m² | - |
| 1777894668 | 8.89° C | 56% | 1011.9 hPa | 0 mm | - | 44 W/m² | - |
| 1777894364 | 8.89° C | 55% | 1011.8 hPa | 0 mm | - | 36 W/m² | - |
| 1777894062 | 8.89° C | 56% | 1011.8 hPa | 0 mm | - | 41 W/m² | - |
| 1777893758 | 8.89° C | 56% | 1011.7 hPa | 0 mm | - | 44 W/m² | - |
| 1777893455 | 8.89° C | 55% | 1011.6 hPa | 0 mm | - | 29 W/m² | - |
| 1777893152 | 8.33° C | 56% | 1011.8 hPa | 0 mm | - | 23 W/m² | - |
| 1777892848 | 8.33° C | 58% | 1011.8 hPa | 0 mm | - | 27 W/m² | - |
| 1777892545 | 8.33° C | 57% | 1011.6 hPa | 0 mm | - | 26 W/m² | - |
| 1777892240 | 8.33° C | 58% | 1011.8 hPa | 0 mm | - | 22 W/m² | - |
| 1777891937 | 8.33° C | 57% | 1011.6 hPa | 0 mm | - | 16 W/m² | - |
| 1777891635 | 8.33° C | 57% | 1011.7 hPa | 0 mm | - | 16 W/m² | - |
| 1777891331 | 8.33° C | 56% | 1011.7 hPa | 0 mm | - | 15 W/m² | - |
| 1777891027 | 8.33° C | 56% | 1011.7 hPa | 0 mm | - | 14 W/m² | - |
| 1777890726 | 7.78° C | 57% | 1011.7 hPa | 0 mm | - | 12 W/m² | - |
| 1777890422 | 7.78° C | 59% | 1011.5 hPa | 0 mm | - | 10 W/m² | - |
| 1777890118 | 7.22° C | 58% | 1011.6 hPa | 0 mm | - | 7 W/m² | - |
| 1777889815 | 7.22° C | 59% | 1011.8 hPa | 0 mm | - | 4 W/m² | - |
| 1777889512 | 7.78° C | 58% | 1011.8 hPa | 0 mm | - | 3 W/m² | - |
| 1777889210 | 7.78° C | 57% | 1011.9 hPa | 0 mm | - | 2 W/m² | - |
| 1777888908 | 7.22° C | 59% | 1012 hPa | 0 mm | - | 1 W/m² | - |
| 1777888604 | 7.22° C | 58% | 1011.9 hPa | 0 mm | - | 0 W/m² | - |
| 1777888300 | 7.78° C | 58% | 1011.8 hPa | 0 mm | - | 0 W/m² | - |
| 1777887997 | 7.78° C | 58% | 1011.8 hPa | 0 mm | - | 0 W/m² | - |
| 1777887694 | 7.78° C | 57% | 1011.9 hPa | 0 mm | - | 0 W/m² | - |
* Rain latest hour (hover to see other rain measurements)
** Current wind speed in m/s (hover to see current wind gust speed)